Starlink 32786

operational
NORAD ID: 62528 Int'l Des: 2025-004 Owner: SPXS Country: US Constellation: starlink
LEOCIRCULAR

About Starlink 32786

Description loading...

Live Position

Loading 3D Globe...

Upcoming Passes

Altitude History

Altitude vs Time

uPlot chart will show altitude changes over time

Two-Line Element Set

1 62528U 25004T 25261.00552226 .00026657 00000-0 97403-3 0 9994
2 62528 43.0005 114.6808 0001575 262.8467 97.2206 15.27603156 39103
Epoch: Sep 18, 2025 • Age: 31 hours

Current Status

Altitude 482.4 km
Velocity 7.63 km/s
Sub-Earth Point 1.16°N, 2.8°W
Launch Date Jan 8, 2025
Age 0.6 years
Type internet

Technical Details

Classification Payload
Mass 730.00 kg
Dry Mass 700.00 kg
Total Mass 730.00 kg
Length 0.30 m
Diameter 4.10 m
Span 29.00 m
Shape Box + pan
Manufacturer SPXS
Bus Type Starlink V2M
Phase Status In Orbit
Owner/State SPXS/US

Large Constellations

Loading constellations...